Location: Plainartige
(45.6866°N, 1.7993°E)
Time: 06:47:06
(UTC+00:00)

deb r/b Ablestar - Pass Details

Date: 27 September 2021
Orbit: 844 x 997 km, 67.7° (Epoch: 25 October)

Event Time Altitude Azimuth Distance (km) Brightness Sun altitude
Rises 20:28:01 0° 331° (NNW) 3,412 ? -28.9°
Reaches altitude 10° 20:30:31 10° 335° (NNW) 2,478 ? -29.3°
Enters shadow 20:35:01 48° 14° (NNE) 1,110 ? -30.0°
